Погода в Голубовке

Украина / Луганская область     48˚38′15″N   38˚38′36″E
темп.,
°C
ветер,
м/с
пор.,
м/с
влажн.,
%
обл.,
%
осадки,
мм/ч
давл.,
гПа
погр.,
м
16 января, сб
сб1623:00−6˚ююз479381 0.0 1009159
02:00−5˚з7119077 0.3 1010591
05:00−10˚з5118962 0.0 1010439
08:00−12˚з6128431 0.0 1013638
11:00−9˚з7108115 0.0 1015963
14:00−9˚з6107958 0.1 1015948
17:00−11˚зюз388994 0.0 1015235
20:00−11˚зюз359257 0.0 1016126
17 января, вс
вс1723:00−11˚юз349495 0.0 101683
02:00−11˚з229397 0.0 101627
05:00−12˚ссз2295100 0.0 101528
08:00−13˚ссв2293100 0.0 101590
11:00−11˚ссв2383100 0.0 1015308
14:00−11˚ссв338498 0.0 1015339
17:00−13˚ссв3589100 0.0 1014265
20:00−13˚св4588100 0.0 1015270
18 января, пн
пн1823:00−13˚ссв3591100 0.1 1015262
02:00−14˚ссв3595100 0.9 1015254
05:00−14˚ссв2495100 0.8 1015239
08:00−13˚ссв3494100 1.7 1017242
11:00−12˚ссв2389100 0.2 1017292
14:00−11˚ссв1187100 0.2 1017315
17:00−13˚св1195100 0.0 101830
20:00−13˚св1196100 0.3 101833
19 января, вт
вт1923:00−14˚в119799 0.3 101820
02:00−15˚вюв119699 0.3 101820
05:00−15˚зсз019791 0.1 101820
08:00−14˚сз239696 0.1 1019132
11:00−12˚зсз238698 0.1 1019484
14:00−12˚зсз458699 0.1 1019654
17:00−15˚з3493100 0.0 102094
20:00−15˚з3595100 0.1 1022138
20 января, ср
ср2023:00−16˚з3496100 0.0 1023105
02:00−17˚з339688 0.1 102456
05:00−18˚з239635 0.0 102539
08:00−17˚з239526 0.0 102649
11:00−13˚з248533 0.0 1027359
14:00−11˚з248549 0.0 1027414
17:00−15˚зюз229328 0.0 102920
20:00−15˚юз129414 0.0 103020